Weather History for Dublin, GA

Change the Weather History Date:

Tuesday, February 26, 2013

  Actual Average Record
Temperature  
Mean Temperature 56 °F -  
Max Temperature 71 °F 64 °F 83 °F (1944)
Min Temperature 42 °F 36 °F 14 °F (1967)
Degree Days  
Heating Degree Days 8    
Growing Degree Days 6 (Base 50)    
Moisture  
Dew Point 45 °F    
Average Humidity 72    
Maximum Humidity 100    
Minimum Humidity 27    
Precipitation  
Precipitation 0.00 in - - ()
Sea Level Pressure  
Sea Level Pressure 29.70 in    
Wind  
Wind Speed 9 mph (SSW)    
Max Wind Speed 20 mph    
Max Gust Speed 26 mph    
Visibility 9 miles    
Events Rain    
Averages and records for this station are not official NWS values.
T = Trace of Precipitation, MM = Missing Value Source: NWS Daily Summary

Daily Weather History Graph

Daily Weather History Graph

Search for Another Location

Airport:

Trip Planner

Search our weather history database for the weather conditions in past years. The results will help you decide how hot, cold, wet, or windy it might be!

Date:

Astronomy

Feb. 26, 2013 Rise Set
Actual Time 7:02 AM EST 6:27 PM EST
Civil Twilight 6:38 AM EST 6:51 PM EST
Nautical Twilight 6:09 AM EST 7:20 PM EST
Astronomical Twilight 5:41 AM EST 7:49 PM EST
Moon 7:35 PM EST (2/26) 7:10 AM EST (2/26)
Length of Visible Light 12h 13m
Length of Day
11h 24m
Full, 99% of the Moon is Illuminated
Feb 26
Full
Mar 4
Last Quarter
Mar 11
New
Mar 19
First Quarter
Mar 27
Full

Hourly Weather History & Observations

Time (EST) Temp. Windchill Dew Point Humidity Pressure Visibility Wind Dir Wind Speed Gust Speed Precip Events Conditions
12:15 AM 42.8 °F 38.0 °F 42.8 °F 100% 29.90 in 7.0 mi East 8.1 mph - N/A Rain Light Rain
12:35 AM 42.8 °F 38.0 °F 42.8 °F 100% 29.90 in 7.0 mi East 8.1 mph - N/A Rain Light Rain
12:55 AM 42.8 °F 37.0 °F 42.8 °F 100% 29.86 in 7.0 mi ENE 10.4 mph 18.4 mph N/A Rain Rain
1:15 AM 42.8 °F 37.5 °F 42.8 °F 100% 29.86 in 10.0 mi East 9.2 mph - N/A Rain Rain
1:35 AM 42.8 °F 37.0 °F 42.8 °F 100% 29.86 in 7.0 mi East 10.4 mph - N/A Rain Rain
1:55 AM 44.6 °F 38.8 °F 44.6 °F 100% 29.84 in 7.0 mi East 11.5 mph - N/A Rain Rain
2:15 AM 44.6 °F 38.8 °F 44.6 °F 100% 29.81 in 7.0 mi East 11.5 mph 16.1 mph N/A Rain Rain
2:35 AM 44.6 °F 39.2 °F 44.6 °F 100% 29.79 in 10.0 mi East 10.4 mph - N/A Rain Light Rain
2:55 AM 44.6 °F 39.7 °F 44.6 °F 100% 29.77 in 10.0 mi East 9.2 mph 18.4 mph N/A Rain Light Rain
3:15 AM 44.6 °F 38.8 °F 44.6 °F 100% 29.76 in 7.0 mi East 11.5 mph - N/A Rain Rain
3:35 AM 44.6 °F 38.8 °F 44.6 °F 100% 29.73 in 7.0 mi East 11.5 mph 18.4 mph N/A Rain Rain
4:35 AM 46.4 °F - 46.4 °F 100% 29.76 in 2.0 mi Calm Calm - N/A   Overcast
4:55 AM 46.4 °F 44.3 °F 46.4 °F 100% 29.75 in 10.0 mi East 4.6 mph - N/A Rain Light Rain
5:15 AM 46.4 °F 42.9 °F 46.4 °F 100% 29.75 in 7.0 mi East 6.9 mph - N/A Rain Rain
5:35 AM 46.4 °F 44.3 °F 46.4 °F 100% 29.72 in 7.0 mi East 4.6 mph - N/A Rain Rain
5:55 AM 46.4 °F 42.9 °F 46.4 °F 100% 29.72 in 10.0 mi East 6.9 mph - N/A Rain Light Rain
6:15 AM 46.4 °F 42.9 °F 46.4 °F 100% 29.71 in 10.0 mi East 6.9 mph - N/A Rain Light Rain
6:35 AM 46.4 °F 43.5 °F 46.4 °F 100% 29.70 in 10.0 mi East 5.8 mph - N/A Rain Light Rain
6:55 AM 46.4 °F 41.9 °F 46.4 °F 100% 29.68 in 10.0 mi East 9.2 mph - N/A   Overcast
7:15 AM 48.2 °F - 48.2 °F 100% 29.67 in 7.0 mi South 3.5 mph - N/A Rain Light Rain
7:35 AM 50.0 °F - 50.0 °F 100% 29.65 in 10.0 mi ESE 8.1 mph - N/A Rain Light Rain
7:55 AM 50.0 °F - 50.0 °F 100% 29.66 in 10.0 mi NNE 4.6 mph - N/A Rain Light Rain
8:15 AM 50.0 °F - 50.0 °F 100% 29.66 in 10.0 mi East 5.8 mph - N/A Rain Light Rain
8:35 AM 50.0 °F - 50.0 °F 100% 29.65 in 10.0 mi ENE 6.9 mph - N/A   Overcast
8:55 AM 51.8 °F - 51.8 °F 100% 29.64 in 10.0 mi East 4.6 mph - N/A   Overcast
9:15 AM 51.8 °F - 51.8 °F 100% 29.63 in 10.0 mi ESE 3.5 mph - N/A   Overcast
9:35 AM 51.8 °F - 51.8 °F 100% 29.63 in 10.0 mi ESE 3.5 mph - N/A   Overcast
9:55 AM 53.6 °F - 53.6 °F 100% 29.62 in 10.0 mi ESE 4.6 mph - N/A   Overcast
10:15 AM 55.4 °F - 55.4 °F 100% 29.61 in 3.0 mi ESE 5.8 mph - N/A   Overcast
10:35 AM 55.4 °F - 55.4 °F 100% 29.60 in 1.5 mi SSE 6.9 mph - N/A   Overcast
10:55 AM 59.0 °F - 59.0 °F 100% 29.61 in 5.0 mi SSW 4.6 mph - N/A   Overcast
11:15 AM 60.8 °F - 60.8 °F 100% 29.62 in 10.0 mi SSW 3.5 mph - N/A   Overcast
11:55 AM 64.4 °F - 64.4 °F 100% 29.62 in 10.0 mi WSW 3.5 mph - N/A   Mostly Cloudy
12:15 PM 68.0 °F - 68.0 °F 100% 29.62 in 10.0 mi SW 5.8 mph - N/A   Scattered Clouds
12:35 PM 69.8 °F - 59.0 °F 68% 29.61 in 10.0 mi SW 13.8 mph 21.9 mph N/A   Scattered Clouds
12:55 PM 69.8 °F - 51.8 °F 53% 29.61 in 10.0 mi WSW 18.4 mph 24.2 mph N/A   Clear
1:15 PM 71.6 °F - 44.6 °F 38% 29.62 in 10.0 mi SW 12.7 mph 26.5 mph N/A   Clear
1:35 PM 69.8 °F - 42.8 °F 38% 29.61 in 10.0 mi SW 16.1 mph 25.3 mph N/A   Clear
1:55 PM 71.6 °F - 42.8 °F 35% 29.60 in 10.0 mi WSW 19.6 mph 25.3 mph N/A   Clear
2:15 PM 69.8 °F - 41.0 °F 35% 29.60 in 10.0 mi SW 12.7 mph 21.9 mph N/A   Clear
2:35 PM 71.6 °F - 35.6 °F 27% 29.61 in 10.0 mi WSW 12.7 mph 25.3 mph N/A   Clear
2:55 PM 69.8 °F - 33.8 °F 27% 29.61 in 10.0 mi WSW 17.3 mph 24.2 mph N/A   Clear
3:15 PM 69.8 °F - 33.8 °F 27% 29.61 in 10.0 mi WSW 17.3 mph 24.2 mph N/A   Clear
3:35 PM 71.6 °F - 37.4 °F 29% 29.61 in 10.0 mi SW 17.3 mph 24.2 mph N/A   Clear
3:55 PM 69.8 °F - 37.4 °F 31% 29.61 in 10.0 mi SW 15.0 mph 26.5 mph N/A   Clear
4:15 PM 69.8 °F - 37.4 °F 31% 29.61 in 10.0 mi WSW 16.1 mph 24.2 mph N/A   Clear
4:35 PM 69.8 °F - 39.2 °F 33% 29.61 in 10.0 mi SW 13.8 mph 26.5 mph N/A   Clear
4:55 PM 69.8 °F - 41.0 °F 35% 29.61 in 10.0 mi WSW 11.5 mph 19.6 mph N/A   Clear
5:15 PM 69.8 °F - 41.0 °F 35% 29.61 in 10.0 mi WSW 12.7 mph 19.6 mph N/A   Clear
5:35 PM 68.0 °F - 42.8 °F 40% 29.62 in 10.0 mi SW 8.1 mph 16.1 mph N/A   Clear
5:55 PM 68.0 °F - 42.8 °F 40% 29.62 in 10.0 mi WSW 12.7 mph 19.6 mph N/A   Clear
6:15 PM 66.2 °F - 41.0 °F 40% 29.63 in 10.0 mi SW 9.2 mph - N/A   Clear
6:35 PM 64.4 °F - 41.0 °F 42% 29.64 in 10.0 mi WSW 9.2 mph 16.1 mph N/A   Clear
6:55 PM 64.4 °F - 41.0 °F 42% 29.66 in 10.0 mi WSW 6.9 mph - N/A   Clear
7:15 PM 62.6 °F - 42.8 °F 48% 29.67 in 10.0 mi WSW 4.6 mph - N/A   Clear
7:35 PM 62.6 °F - 42.8 °F 48% 29.69 in 10.0 mi WSW 4.6 mph - N/A   Clear
7:55 PM 60.8 °F - 42.8 °F 52% 29.70 in 10.0 mi West 6.9 mph - N/A   Clear
8:15 PM 62.6 °F - 41.0 °F 45% 29.71 in 10.0 mi WSW 9.2 mph - N/A   Clear
8:35 PM 60.8 °F - 41.0 °F 48% 29.72 in 10.0 mi WSW 6.9 mph - N/A   Clear
8:55 PM 60.8 °F - 41.0 °F 48% 29.72 in 10.0 mi WSW 8.1 mph - N/A   Clear
9:15 PM 60.8 °F - 41.0 °F 48% 29.75 in 10.0 mi WSW 8.1 mph - N/A   Clear
9:35 PM 59.0 °F - 42.8 °F 55% 29.76 in 10.0 mi West 9.2 mph - N/A   Clear
9:55 PM 59.0 °F - 42.8 °F 55% 29.78 in 10.0 mi WNW 11.5 mph 19.6 mph N/A   Clear
10:15 PM 57.2 °F - 41.0 °F 55% 29.79 in 10.0 mi WNW 8.1 mph - N/A   Clear
10:35 PM 55.4 °F - 39.2 °F 54% 29.80 in 10.0 mi NW 12.7 mph 17.3 mph N/A   Clear
11:15 PM 53.6 °F - 37.4 °F 54% 29.83 in 10.0 mi WNW 11.5 mph - N/A   Clear
11:35 PM 51.8 °F - 35.6 °F 54% 29.83 in 10.0 mi West 9.2 mph 16.1 mph N/A   Clear
11:55 PM 51.8 °F - 35.6 °F 54% 29.84 in 10.0 mi WNW 6.9 mph - N/A   Clear